TimeEST,TemperatureF,Dew PointF,Humidity,Sea Level PressureIn,VisibilityMPH,Wind Direction,Wind SpeedMPH,Gust SpeedMPH,PrecipitationIn,Events,Conditions,WindDirDegrees,DateUTC
12:15 AM,51.8,46.4,82,29.79,10.0,West,9.2,-,0.00,,Clear,260,2014-01-12 05:15:00
12:35 AM,51.8,44.6,76,29.80,10.0,West,8.1,-,0.00,,Clear,280,2014-01-12 05:35:00
12:55 AM,51.8,44.6,76,29.81,10.0,West,6.9,-,0.00,,Clear,280,2014-01-12 05:55:00
1:15 AM,51.8,42.8,71,29.81,10.0,West,9.2,-,0.00,,Clear,270,2014-01-12 06:15:00
1:35 AM,51.8,42.8,71,29.83,10.0,West,10.4,-,0.00,,Clear,280,2014-01-12 06:35:00
1:55 AM,51.8,42.8,71,29.83,10.0,West,10.4,-,0.00,,Clear,280,2014-01-12 06:55:00
2:15 AM,50.0,42.8,76,29.84,10.0,West,9.2,-,0.00,,Clear,280,2014-01-12 07:15:00
2:35 AM,50.0,42.8,76,29.86,10.0,West,8.1,-,0.00,,Clear,280,2014-01-12 07:35:00
2:55 AM,48.2,42.8,82,29.87,10.0,West,8.1,-,0.00,,Clear,270,2014-01-12 07:55:00
3:15 AM,48.2,42.8,82,29.88,10.0,West,8.1,-,0.00,,Clear,270,2014-01-12 08:15:00
3:35 AM,46.4,41.0,81,29.89,10.0,West,8.1,-,0.00,,Clear,260,2014-01-12 08:35:00
3:55 AM,46.4,41.0,81,29.90,10.0,West,8.1,-,0.00,,Clear,270,2014-01-12 08:55:00
4:15 AM,46.4,41.0,81,29.92,10.0,West,6.9,-,0.00,,Clear,260,2014-01-12 09:15:00
4:35 AM,46.4,41.0,81,29.93,10.0,West,8.1,-,0.00,,Clear,260,2014-01-12 09:35:00
4:55 AM,46.4,39.2,76,29.94,10.0,West,6.9,-,0.00,,Clear,270,2014-01-12 09:55:00
5:15 AM,46.4,39.2,76,29.95,10.0,West,5.8,-,0.00,,Clear,270,2014-01-12 10:15:00
5:35 AM,44.6,39.2,81,29.96,10.0,West,8.1,-,0.00,,Clear,260,2014-01-12 10:35:00
5:55 AM,44.6,39.2,81,29.96,10.0,WSW,5.8,-,0.00,,Clear,240,2014-01-12 10:55:00
6:15 AM,42.8,37.4,81,29.97,10.0,Calm,Calm,-,0.00,,Clear,0,2014-01-12 11:15:00
6:35 AM,42.8,39.2,87,29.99,10.0,WSW,5.8,-,0.00,,Clear,240,2014-01-12 11:35:00
6:55 AM,42.8,37.4,81,30.01,10.0,SW,5.8,-,0.00,,Clear,220,2014-01-12 11:55:00
7:15 AM,42.8,37.4,81,30.02,10.0,Calm,Calm,-,0.00,,Clear,0,2014-01-12 12:15:00
7:35 AM,37.4,35.6,93,30.02,10.0,Calm,Calm,-,0.00,,Clear,0,2014-01-12 12:35:00
7:55 AM,35.6,35.6,100,30.04,10.0,Calm,Calm,-,0.00,,Clear,0,2014-01-12 12:55:00
8:15 AM,39.2,39.2,100,30.05,10.0,Calm,Calm,-,0.00,,Clear,0,2014-01-12 13:15:00
8:35 AM,41.0,39.2,93,30.07,10.0,Calm,Calm,-,0.00,,Clear,0,2014-01-12 13:35:00
8:55 AM,44.6,39.2,81,30.08,10.0,Calm,Calm,-,0.00,,Clear,0,2014-01-12 13:55:00
9:15 AM,46.4,39.2,76,30.11,10.0,West,5.8,-,0.00,,Clear,260,2014-01-12 14:15:00
9:35 AM,46.4,39.2,76,30.13,10.0,Calm,Calm,-,0.00,,Clear,0,2014-01-12 14:35:00
9:55 AM,48.2,39.2,71,30.14,3.0,West,4.6,-,0.00,,Haze,260,2014-01-12 14:55:00
10:15 AM,51.8,39.2,62,30.16,10.0,West,5.8,-,0.00,,Clear,270,2014-01-12 15:15:00
10:35 AM,53.6,37.4,54,30.16,10.0,West,5.8,-,0.00,,Clear,270,2014-01-12 15:35:00
10:55 AM,53.6,37.4,54,30.16,10.0,West,5.8,-,0.00,,Clear,280,2014-01-12 15:55:00
11:15 AM,55.4,35.6,47,30.17,10.0,WNW,10.4,-,0.00,,Clear,290,2014-01-12 16:15:00
11:35 AM,55.4,35.6,47,30.16,10.0,WNW,9.2,-,0.00,,Clear,290,2014-01-12 16:35:00
11:55 AM,55.4,35.6,47,30.15,10.0,West,9.2,-,0.00,,Clear,270,2014-01-12 16:55:00
12:15 PM,57.2,35.6,44,30.13,10.0,West,6.9,-,0.00,,Clear,270,2014-01-12 17:15:00
12:35 PM,57.2,33.8,41,30.13,10.0,West,11.5,17.3,0.00,,Clear,260,2014-01-12 17:35:00
12:55 PM,57.2,33.8,41,30.12,10.0,SW,5.8,-,0.00,,Clear,230,2014-01-12 17:55:00
1:15 PM,57.2,33.8,41,30.12,10.0,West,5.8,-,0.00,,Clear,270,2014-01-12 18:15:00
1:35 PM,57.2,33.8,41,30.12,10.0,West,5.8,-,0.00,,Clear,260,2014-01-12 18:35:00
1:55 PM,57.2,32.0,38,30.11,10.0,WNW,5.8,-,0.00,,Clear,290,2014-01-12 18:55:00
2:15 PM,59.0,33.8,39,30.11,10.0,WNW,6.9,-,0.00,,Clear,290,2014-01-12 19:15:00
2:35 PM,59.0,32.0,36,30.12,10.0,West,6.9,-,0.00,,Clear,270,2014-01-12 19:35:00
2:55 PM,60.8,33.8,36,30.12,10.0,West,6.9,-,0.00,,Clear,280,2014-01-12 19:55:00
3:15 PM,60.8,32.0,34,30.12,10.0,WSW,9.2,-,0.00,,Clear,250,2014-01-12 20:15:00
3:35 PM,60.8,33.8,36,30.12,8.0,Calm,Calm,-,0.00,,Clear,0,2014-01-12 20:35:00
3:55 PM,60.8,32.0,34,30.13,10.0,West,4.6,-,0.00,,Clear,260,2014-01-12 20:55:00
4:15 PM,60.8,32.0,34,30.14,10.0,West,5.8,-,0.00,,Clear,260,2014-01-12 21:15:00
4:35 PM,59.0,33.8,39,30.15,10.0,SW,6.9,-,0.00,,Clear,230,2014-01-12 21:35:00
4:55 PM,59.0,33.8,39,30.15,10.0,WSW,5.8,-,0.00,,Clear,250,2014-01-12 21:55:00
5:15 PM,57.2,35.6,44,30.16,10.0,Calm,Calm,-,0.00,,Clear,0,2014-01-12 22:15:00
5:35 PM,55.4,35.6,47,30.16,8.0,Calm,Calm,-,0.00,,Clear,0,2014-01-12 22:35:00
5:55 PM,53.6,37.4,54,30.16,10.0,Calm,Calm,-,0.00,,Clear,0,2014-01-12 22:55:00
6:15 PM,51.8,37.4,58,30.17,10.0,Calm,Calm,-,0.00,,Clear,0,2014-01-12 23:15:00
6:35 PM,46.4,41.0,81,30.17,10.0,Calm,Calm,-,0.00,,Clear,0,2014-01-12 23:35:00
6:55 PM,44.6,41.0,87,30.18,10.0,Calm,Calm,-,0.00,,Clear,0,2014-01-12 23:55:00
7:15 PM,44.6,41.0,87,30.18,10.0,Calm,Calm,-,0.00,,Clear,0,2014-01-13 00:15:00
7:35 PM,44.6,39.2,81,30.18,10.0,Calm,Calm,-,0.00,,Clear,0,2014-01-13 00:35:00
7:55 PM,42.8,39.2,87,30.19,10.0,Calm,Calm,-,0.00,,Clear,0,2014-01-13 00:55:00
8:15 PM,42.8,39.2,87,30.20,10.0,Calm,Calm,-,0.00,,Clear,0,2014-01-13 01:15:00
8:35 PM,42.8,39.2,87,30.20,10.0,Calm,Calm,-,0.00,,Clear,0,2014-01-13 01:35:00
8:55 PM,39.2,37.4,93,30.20,10.0,Calm,Calm,-,0.00,,Clear,0,2014-01-13 01:55:00
9:15 PM,39.2,37.4,93,30.21,10.0,Calm,Calm,-,0.00,,Clear,0,2014-01-13 02:15:00
9:35 PM,39.2,37.4,93,30.21,10.0,Calm,Calm,-,0.00,,Clear,0,2014-01-13 02:35:00
9:55 PM,39.2,37.4,93,30.21,10.0,Calm,Calm,-,0.00,,Clear,0,2014-01-13 02:55:00
10:15 PM,37.4,37.4,100,30.21,10.0,Calm,Calm,-,0.00,,Clear,0,2014-01-13 03:15:00
10:35 PM,37.4,35.6,93,30.21,10.0,Calm,Calm,-,0.00,,Clear,0,2014-01-13 03:35:00
10:55 PM,37.4,35.6,93,30.20,10.0,Calm,Calm,-,0.00,,Clear,0,2014-01-13 03:55:00
11:15 PM,37.4,35.6,93,30.20,10.0,Calm,Calm,-,0.00,,Clear,0,2014-01-13 04:15:00
11:35 PM,37.4,35.6,93,30.21,10.0,Calm,Calm,-,0.00,,Clear,0,2014-01-13 04:35:00
11:55 PM,35.6,35.6,100,30.20,10.0,Calm,Calm,-,0.00,,Clear,0,2014-01-13 04:55:00